Location: Newark
(3.0500°N, 36.0167°E)
Time: 01:41:38
(UTC+00:00)

Tiros 1 - All Passes

Search period start: 25 August 2019 00:00
Search period end: 04 September 2019 00:00
Orbit: 631 x 664 km, 48.4° (Epoch: 24 August)

Date Brightness Start Highest point End Pass type
(mag) Time Alt. Az. Time Alt. Az. Time Alt. Az.
25 Aug - 04:15:17 10° N 04:18:54 21° NE 04:22:32 10° E daylight
25 Aug - 05:56:46 10° WNW 06:00:56 30° SW 06:05:09 10° S daylight
25 Aug - 16:29:46 10° S 16:33:26 23° SE 16:37:04 10° ENE visible
25 Aug - 18:11:33 10° WSW 18:15:26 27° NW 18:19:19 10° N visible
26 Aug - 04:40:13 10° NNW 04:44:56 70° NE 04:49:42 10° SE daylight
26 Aug - 16:54:47 10° SW 16:59:26 78° SE 17:04:03 10° NE visible
27 Aug - 03:25:32 10° N 03:28:52 19° NE 03:32:15 10° E daylight
27 Aug - 05:06:38 10° WNW 05:10:56 34° SW 05:15:17 10° SSE daylight
27 Aug - 15:40:00 10° S 15:43:26 20° SE 15:46:51 10° E daylight
27 Aug - 17:21:23 10° WSW 17:25:26 30° NW 17:29:29 10° N visible
28 Aug - 03:50:16 10° NNW 03:54:56 61° NE 03:59:39 10° SE daylight
28 Aug - 05:35:57 10° WSW 05:37:00 11° SW 05:38:04 10° SW daylight
28 Aug - 16:04:48 10° SSW 16:09:27 68° SE 16:14:02 10° NE visible
29 Aug - 02:35:49 10° N 02:38:52 17° NE 02:41:56 10° E visible
29 Aug - 04:16:32 10° WNW 04:20:55 38° SW 04:25:23 10° SSE daylight
29 Aug - 14:50:15 10° S 14:53:26 18° SE 14:56:36 10° E daylight
29 Aug - 16:31:14 10° WSW 16:35:26 34° NW 16:39:38 10° NNE visible
30 Aug - 03:00:20 10° NNW 03:04:55 54° NE 03:09:35 10° SE visible
30 Aug - 04:45:07 10° WSW 04:46:59 12° SW 04:48:52 10° SSW daylight
30 Aug - 15:14:50 10° SSW 15:19:27 60° SE 15:24:01 10° NE daylight
30 Aug - 17:00:34 10° WNW 17:01:34 11° NW 17:02:34 10° NW visible
31 Aug - 01:46:10 10° NNE 01:48:51 15° NE 01:51:32 10° E visible
31 Aug - 03:26:26 10° WNW 03:30:56 44° SW 03:35:28 10° SSE daylight
31 Aug - 14:00:33 10° SSE 14:03:26 16° SE 14:06:18 10° E daylight
31 Aug - 15:41:06 10° WSW 15:45:27 38° NW 15:49:46 10° NNE daylight
01 Sep - 02:10:25 10° NNW 02:14:55 47° NE 02:19:29 10° SE visible
01 Sep - 03:54:34 10° W 03:56:58 14° SW 03:59:23 10° SSW daylight
01 Sep - 14:24:53 10° SSW 14:29:28 52° SE 14:33:59 10° NE daylight
01 Sep - 16:09:41 10° WNW 16:11:33 12° NW 16:13:25 10° NNW visible
02 Sep - 00:56:38 10° NNE 00:58:49 13° NE 01:01:02 10° ENE visible
02 Sep - 02:36:22 10° NW 02:40:55 50° SW 02:45:32 10° SSE visible
02 Sep - 13:10:54 10° SSE 13:13:25 14° SE 13:15:55 10° E daylight
02 Sep - 14:50:59 10° WSW 14:55:27 44° NW 14:59:53 10° NNE daylight
03 Sep - 01:20:31 10° NNW 01:24:55 41° NE 01:29:23 10° ESE visible
03 Sep - 03:04:10 10° W 03:06:58 15° SW 03:09:46 10° SSW visible
03 Sep - 13:34:57 10° SSW 13:39:28 46° SE 13:43:56 10° NE daylight
03 Sep - 15:19:08 10° W 15:21:32 14° NW 15:23:56 10° NNW daylight
